Location: Piolenc
(44.1794°N, 4.7641°E)
Time: 04:45:22
(UTC+00:00)

Cosmos 1315 Rocket - Pass Details

Date: 27 January 2021
Orbit: 529 x 567 km, 81.2° (Epoch: 27 February)

Event Time Altitude Azimuth Distance (km) Brightness Sun altitude
Rises 05:43:11 0° 196° (SSW) 2,659 6.3 -14.5°
Reaches altitude 10° 05:45:20 10° 199° (SSW) 1,772 5.3 -14.2°
Maximum altitude 05:49:12 64° 282° (WNW) 590 2.7 -13.5°
Drops below altitude 10° 05:53:06 10° 4° (N) 1,790 5.3 -12.8°
Sets 05:55:17 0° 8° (N) 2,688 6.3 -12.4°
